Date String (YYYY-MM-DD hh:mm:ss) UTC,Instrument flags,absolute air pressure of the measurement (hPa),sample flow rate (lpm),inlet stack bypass flow (lpm),air temperature of the measurement (°C),ambient temperature measured by the external sensor (°C),aerosol sample conditioner tube jacket temperature (°C),OPC LED temperature (°C),internal box temperature (°C),relative humidity of the measurement (%),span deviation,mass concentration of particles derived from Lorenz-Mie calculation of OPC scattering (μg/m³),mass concentration of particles derived from Lorenz-Mie calculation of OPC scattering (μg/m³),mass concentration of particles derived from Lorenz-Mie calculation of OPC scattering (μg/m³)
DateTimeUTC,F1_M11,P_M11,Q1_M11,Q2_M11,T1_M11,T2_M11,T3_M11,T4_M11,T5_M11,U1_M11,ZSPAN_M11,X2_M11,X0_M11,X1_M11
2023-08-25 15:00:00,SystemResetWarning,0838.2,5.00,000.00,029.4,027.3,000.0,037.3,030.3,34.2,0000.0,0004.52,0008.58,0003.96
2023-08-25 15:01:00,SystemResetWarning,0838.2,4.99,000.00,029.5,027.4,000.0,037.4,030.3,34.2,0000.0,0004.53,0008.79,0003.96
2023-08-25 15:02:00,SystemResetWarning,0838.2,5.00,000.00,029.5,027.4,000.0,037.4,030.4,34.2,0000.0,0004.51,0009.12,0003.96
2023-08-25 15:03:00,SystemResetWarning,0838.2,4.99,000.00,029.5,026.1,000.0,037.3,030.2,34.2,0000.0,0004.52,0009.03,0003.97
2023-08-25 15:04:00,SystemResetWarning,0838.1,5.00,000.00,029.3,024.5,000.0,037.2,029.8,34.4,0000.0,0004.56,0009.06,0003.97
2023-08-25 15:05:00,SystemResetWarning,0838.1,5.00,000.00,029.2,024.0,000.0,037.1,029.7,34.5,0000.0,0004.79,0011.57,0003.98
2023-08-25 15:06:00,SystemResetWarning,0838.2,5.01,000.00,029.1,024.2,000.0,037.2,029.6,34.7,0000.0,0005.00,0014.78,0003.99
2023-08-25 15:07:00,SystemResetWarning,0838.1,4.99,000.00,029.0,024.6,000.0,037.2,029.6,35.1,0000.0,0005.29,0017.89,0004.01
2023-08-25 15:08:00,SystemResetWarning,0838.2,5.04,000.00,029.1,025.1,000.0,037.2,029.8,35.0,0000.0,0005.46,0020.09,0004.02
2023-08-25 15:09:00,SystemResetWarning,0838.2,4.97,000.00,029.3,025.5,000.0,037.2,030.0,34.5,0000.0,0005.87,0025.07,0004.04
2023-08-25 15:10:00,SystemResetWarning,0838.1,5.02,000.00,029.4,025.9,000.0,037.3,030.1,34.2,0000.0,0006.01,0026.58,0004.03
2023-08-25 15:11:00,SystemResetWarning,0838.2,5.01,000.00,029.5,026.2,000.0,037.3,030.2,34.0,0000.2,0006.01,0026.82,0004.02
2023-08-25 15:12:00,SystemResetWarning,0838.2,5.00,000.00,029.5,026.5,000.0,037.3,030.2,33.8,0000.0,0005.99,0026.56,0004.02
2023-08-25 15:13:00,SystemResetWarning,0838.2,5.00,000.00,029.6,026.8,000.0,037.4,030.3,33.7,0000.1,0006.01,0026.14,0004.01
2023-08-25 15:14:00,SystemResetWarning,0838.2,5.00,000.00,029.6,027.0,000.0,037.4,030.3,33.7,-000.0,0006.05,0026.29,0004.00
2023-08-25 15:15:00,SystemResetWarning,0838.2,5.00,000.00,029.6,027.2,000.0,037.5,030.4,33.8,-000.0,0006.05,0026.50,0004.00
2023-08-25 15:16:00,SystemResetWarning,0838.2,5.01,000.00,029.7,027.3,000.0,037.5,030.5,33.6,0000.0,0005.84,0024.29,0003.98
2023-08-25 15:17:00,SystemResetWarning,0838.3,5.00,000.00,029.7,027.4,000.0,037.6,030.6,33.5,-000.3,0005.67,0021.02,0003.97
2023-08-25 15:18:00,SystemResetWarning,0838.2,4.97,000.00,029.7,026.1,000.0,037.5,030.4,33.5,-000.6,0005.39,0017.67,0003.96
2023-08-25 15:19:00,SystemResetWarning,0838.2,5.01,000.00,029.6,024.5,000.0,037.4,030.1,33.6,0000.0,0005.29,0016.17,0003.96
2023-08-25 15:20:00,SystemResetWarning,0838.2,5.01,000.00,029.5,024.2,000.0,037.3,030.0,33.8,-000.5,0004.85,0012.00,0003.94
2023-08-25 15:21:00,SystemResetWarning,0838.3,5.01,000.00,029.4,024.4,000.0,037.4,029.9,34.1,0000.0,0004.67,0010.42,0003.93
2023-08-25 15:22:00,SystemResetWarning,0838.3,5.00,000.00,029.3,024.9,000.0,037.4,030.0,34.2,0000.0,0004.65,0010.31,0003.94
2023-08-25 15:23:00,SystemResetWarning,0838.3,5.00,000.00,029.3,025.3,000.0,037.4,030.1,34.3,0000.0,0004.69,0010.67,0003.94
2023-08-25 15:24:00,SystemResetWarning,0838.3,5.00,000.00,029.2,025.8,000.0,037.4,030.1,34.4,0000.0,0004.71,0011.39,0003.95
2023-08-25 15:25:00,SystemResetWarning,0838.3,5.00,000.00,029.2,026.2,000.0,037.5,030.1,34.5,0000.0,0004.68,0011.26,0003.94
2023-08-25 15:26:00,SystemResetWarning,0838.3,5.00,000.00,029.2,026.5,000.0,037.5,030.2,34.5,0000.0,0004.65,0010.97,0003.93
2023-08-25 15:27:00,SystemResetWarning,0838.4,5.00,000.00,029.2,026.8,000.0,037.5,030.3,34.5,0000.5,0004.65,0011.03,0003.94
2023-08-25 15:28:00,SystemResetWarning,0838.4,5.00,000.00,029.3,027.0,000.0,037.5,030.3,34.5,0000.3,0004.70,0011.58,0003.93
2023-08-25 15:29:00,SystemResetWarning,0838.4,5.00,000.00,029.3,027.2,000.0,037.5,030.4,34.5,0000.2,0004.69,0011.51,0003.92
2023-08-25 15:30:00,SystemResetWarning,0838.4,5.00,000.00,029.3,027.4,000.0,037.5,030.5,34.6,0000.9,0004.65,0011.29,0003.90
2023-08-25 15:31:00,SystemResetWarning,0838.4,4.99,000.00,029.3,027.3,000.0,037.5,030.5,34.6,0000.6,0004.63,0010.51,0003.88
2023-08-25 15:32:00,SystemResetWarning,0838.4,5.00,000.00,029.3,025.8,000.0,037.4,030.3,34.7,0000.3,0004.65,0010.15,0003.88
2023-08-25 15:33:00,SystemResetWarning,0838.3,4.98,000.00,029.2,024.5,000.0,037.3,030.0,35.1,-000.1,0004.62,0009.92,0003.86
2023-08-25 15:34:00,SystemResetWarning,0838.3,5.04,000.00,029.3,024.2,000.0,037.2,030.0,35.1,-000.3,0004.59,0010.22,0003.85
2023-08-25 15:35:00,SystemResetWarning,0838.4,5.00,000.00,029.4,024.5,000.0,037.2,030.0,34.8,-000.4,0004.52,0009.75,0003.83
2023-08-25 15:36:00,SystemResetWarning,0838.4,4.98,000.00,029.5,024.9,000.0,037.3,030.0,34.6,-000.3,0004.51,0009.66,0003.83
2023-08-25 15:37:00,SystemResetWarning,0838.5,5.00,000.00,029.6,025.4,000.0,037.3,030.1,34.4,-000.2,0004.55,0009.77,0003.82
2023-08-25 15:38:00,SystemResetWarning,0838.5,5.01,000.00,029.7,025.9,000.0,037.4,030.2,34.1,-000.4,0004.55,0009.88,0003.81
2023-08-25 15:39:00,SystemResetWarning,0838.5,5.00,000.00,029.7,026.2,000.0,037.5,030.3,34.1,-000.1,0004.53,0009.72,0003.81
2023-08-25 15:40:00,SystemResetWarning,0838.6,4.99,000.00,029.8,026.5,000.0,037.5,030.4,33.8,0000.0,0004.51,0009.71,0003.80
2023-08-25 15:41:00,SystemResetWarning,0838.6,5.00,000.00,029.8,026.8,000.0,037.6,030.4,33.8,-000.2,0004.50,0009.89,0003.79
2023-08-25 15:42:00,SystemResetWarning,0838.6,5.00,000.00,029.8,027.0,000.0,037.6,030.5,33.8,0000.0,0004.51,0010.34,0003.78
2023-08-25 15:43:00,SystemResetWarning,0838.6,5.00,000.00,029.8,025.9,000.0,037.6,030.3,33.7,0000.0,0004.43,0010.68,0003.75
2023-08-25 15:44:00,SystemResetWarning,0838.6,5.00,000.00,029.7,024.4,000.0,037.5,029.7,33.9,0000.0,0004.39,0011.01,0003.74
2023-08-25 15:45:00,SystemResetWarning,0838.6,5.00,000.00,029.6,024.0,000.0,037.4,029.5,34.1,0000.0,0004.35,0010.32,0003.72
2023-08-25 15:46:00,SystemResetWarning,0838.6,5.01,000.00,029.4,024.2,000.0,037.5,029.4,34.5,-000.3,0004.36,0010.69,0003.71
2023-08-25 15:47:00,SystemResetWarning,0838.6,5.00,000.00,029.3,024.6,000.0,037.5,029.6,34.8,-000.4,0004.34,0010.99,0003.69
2023-08-25 15:48:00,SystemResetWarning,0838.6,4.97,000.00,029.3,025.1,000.0,037.5,029.8,35.0,-000.1,0004.30,0011.06,0003.67
2023-08-25 15:49:00,SystemResetWarning,0838.6,5.04,000.00,029.4,025.6,000.0,037.5,029.9,35.0,0000.1,0004.28,0010.99,0003.66
2023-08-25 15:50:00,SystemResetWarning,0838.6,4.97,000.00,029.6,026.0,000.0,037.5,030.1,34.6,0000.6,0004.23,0010.93,0003.65
2023-08-25 15:51:00,SystemResetWarning,0838.6,5.02,000.00,029.7,026.3,000.0,037.5,030.2,34.4,0000.4,0004.24,0010.96,0003.64
2023-08-25 15:52:00,SystemResetWarning,0838.6,5.01,000.00,029.8,026.6,000.0,037.5,030.3,34.2,0000.0,0004.23,0010.78,0003.63
2023-08-25 15:53:00,SystemResetWarning,0838.7,4.99,000.00,029.8,026.9,000.0,037.6,030.4,34.2,0000.6,0004.27,0010.43,0003.65
2023-08-25 15:54:00,SystemResetWarning,0838.6,4.99,000.00,029.9,026.9,000.0,037.6,030.4,34.0,0000.0,0004.32,0010.05,0003.65
2023-08-25 15:55:00,SystemResetWarning,0838.6,5.00,000.00,029.9,025.5,000.0,037.5,030.1,34.0,0000.0,0004.37,0010.26,0003.66
2023-08-25 15:56:00,SystemResetWarning,0838.6,5.00,000.00,029.8,024.3,000.0,037.4,029.8,34.4,0000.0,0004.37,0010.41,0003.67
2023-08-25 15:57:00,SystemResetWarning,0838.6,5.01,000.00,029.7,024.1,000.0,037.4,029.6,34.7,0000.0,0004.39,0009.63,0003.68
2023-08-25 15:58:00,SystemResetWarning,0838.6,4.99,000.00,029.5,024.3,000.0,037.4,029.5,35.1,0000.0,0004.41,0009.58,0003.69
2023-08-25 15:59:00,SystemResetWarning,0838.6,5.03,000.00,029.6,024.8,000.0,037.5,029.8,35.1,0000.0,0004.45,0010.02,0003.71
